Regional Weather Roundup
Issued by NWS

Home | Current Version | Previous Version | Graphics & Text | Print | Product List | Glossary Off
Versions: 1 2 3 4 5 6 7 8 9 10 11 12 13 14 15 16 17 18 19 20 21 22 23 24 25 26 27 28 29 30 31 32 33 34 35 36 37 38 39 40 41 42 43 44 45 46 47 48 49 50

375
ASUS43 KDMX 201506
RWRIA

WEATHER ROUNDUP FOR IOWA
NATIONAL WEATHER SERVICE DES MOINES IA
1000 AM CDT FRI APR 20 2018

NOTE: "FAIR" INDICATES FEW OR NO CLOUDS BELOW 12,000 FEET WITH NO
SIGNIFICANT WEATHER AND/OR OBSTRUCTIONS TO VISIBILITY.

* - THESE STATIONS ARE NOT NWS STATIONS...THUS NOT UNDER NWS
QUALITY CONTROL.  THEY ALSO DO NOT REPORT WEATHER SUCH
AS PRECIPITATION OR FOG.

IAZ001>003-012>014-020>022-031>034-043>046-201600-
   NORTHWEST IOWA

CITY           SKY/WX    TMP DP  RH WIND       PRES   REMARKS
CARROLL *      CLOUDY    41  32  70 SE10      30.46F
CHEROKEE *     PTSUNNY   39  30  69 SE5       30.45F
DENISON *      CLOUDY    46  32  57 SE8       30.45F
LE MARS *      CLOUDY    43  32  65 SE8       30.44S
ORANGE CITY *  MOSUNNY   39  30  70 SE5       30.44S
SHELDON *      MOSUNNY   39  30  70 SE10      30.43S WCI  32
SIOUX CITY     PTSUNNY   41  31  67 SE7       30.44R
SPENCER        CLOUDY    38  25  59 SE9       30.46F WCI  31
STORM LAKE *   CLOUDY    37  30  75 SE12      30.44F WCI  30
$$

IAZ055>058-069>071-079>083-090>094-201600-
   SOUTHWEST IOWA

CITY           SKY/WX    TMP DP  RH WIND       PRES   REMARKS
ATLANTIC *     CLOUDY    48  32  53 SE8       30.45F
AUDUBON *      CLOUDY    46  32  57 SE6       30.46F
CLARINDA *     MOSUNNY   50  30  46 SE8       30.47F
COUNCIL BLFS * CLOUDY    46  32  57 SE10      30.42F
CRESTON *      MOSUNNY   50  28  43 SE14      30.47F
HARLAN  *      CLOUDY    46  32  57 SE10      30.47F
LAMONI         SUNNY     50  28  42 SE9       30.47S
RED OAK *      CLOUDY    50  32  50 SE10      30.44F
SHENANDOAH *   CLOUDY    50  32  50 SE12      30.43F
$$

IAZ047>049-059>061-072>074-084-201600-
   CENTRAL IOWA

CITY           SKY/WX    TMP DP  RH WIND       PRES   REMARKS
AMES           MOSUNNY   45  31  58 SE9       30.49F
ANKENY *       CLOUDY    46  28  49 S7        30.50F
BOONE *        CLOUDY    43  32  65 SE10      30.47F
CHARITON *     MOSUNNY   50  30  46 S9        30.48F
DES MOINES     CLOUDY    47  30  51 SE8       30.49S
GRINNELL*      MOSUNNY   48  30  49 S9        30.52R
KNOXVILLE *    MOSUNNY   48  28  46 SE10      30.48F
MARSHALLTOWN   MOSUNNY   45  32  60 S8        30.50S
NEWTON *       CLOUDY    48  30  49 SE13      30.50S
PELLA *        MOSUNNY   48  30  49 S10       30.51F
PERRY *        FAIR      45  28  50 SE10      30.48F
$$

IAZ004>006-015-016-023>025-035-036-201600-
   NORTH CENTRAL IOWA

CITY           SKY/WX    TMP DP  RH WIND       PRES   REMARKS
ALGONA *       CLOUDY    37  23  56 SE9       30.48F WCI  31
CLARION *      CLOUDY    37  28  70 SE9       30.49S WCI  31
ESTHERVILLE    CLOUDY    29  24  82 E6        30.47F WCI  23
FORT DODGE *   CLOUDY    41  33  73 E7        30.48F
MASON CITY     MOSUNNY   32  25  75 CALM      30.52S
FOREST CITY *  FAIR      36  27  69 E5        30.50S WCI  32
WEBSTER CITY * CLOUDY    43  32  65 SE8       30.47F
IOWA FALLS *   FAIR      42  31  65 E3        30.51S
$$

IAZ007>011-017>019-026>030-037>042-050>054-066-201600-
   NORTHEAST IOWA

CITY           SKY/WX    TMP DP  RH WIND       PRES   REMARKS
CEDAR RAPIDS   FAIR      50  27  40 S8        30.50F
CHARLES CITY * FAIR      37  27  65 E5        30.51F WCI  34
CLINTON *      FAIR      49  29  46 SE5       30.54S
DECORAH *      FAIR      37  27  65 CALM      30.50S
DUBUQUE        FAIR      46  29  51 NE5       30.52R
MONTICELLO *   FAIR      48  28  46 VRB3      30.52S
OELWEIN *      FAIR      45  28  53 CALM      30.52S
WATERLOO       FAIR      43  29  57 VRB3      30.51F
$$

IAZ064-065-067-068-078-201600-
   EAST CENTRAL IOWA

CITY           SKY/WX    TMP DP  RH WIND       PRES   REMARKS
DAVENPORT      FAIR      49  27  42 E6        30.54F
IOWA CITY      FAIR      48  31  51 S7        30.53F
MT. PLEASANT * SUNNY     50  27  40 SE8       30.51F
MUSCATINE *    FAIR      50  30  46 SE5       30.53F
QUAD CITIES    FAIR      51  31  46 VRB6      30.52F
$$

IAZ062-063-075>077-085>089-095>099-201600-
   SOUTHEAST IOWA

CITY           SKY/WX    TMP DP  RH WIND       PRES   REMARKS
BURLINGTON     SUNNY     49  30  48 E7        30.52S
FAIRFIELD *    SUNNY     52  27  37 S10       30.51S
FORT MADISON * SUNNY     52  30  43 SE5       30.52S
KEOKUK *       SUNNY     52  30  43 E8        30.51S
OSKALOOSA *    FAIR      50  29  45 S12       30.51S
CENTERVILLE *    N/A     50  28  43 SE13      30.50F
OTTUMWA        SUNNY     50  29  44 S13       30.51S
WASHINGTON *   SUNNY     50  30  46 SE8       30.53S
$$

ABBREVIATIONS USED IN REMARKS
   TC - TEMPERATURES IN CELSIUS
  WCI - WIND CHILL INDEX
   HX - HEAT INDEX
  VSB - VISIBILITY
$$





USA.gov is the U.S. government's official web portal to all federal, state and local government web resources and services.